Location: Northam
(31.6525°S, 116.6655°E)
Time: 03:33:46
(UTC+08:00)

Vanguard 2 Rocket - Visible Passes

Search period start: 14 June 2021 00:00
Search period end: 24 June 2021 00:00
Orbit: 554 x 3325 km, 32.9° (Epoch: 13 June)

Date Brightness Start Highest point End Pass type
(mag) Time Alt. Az. Time Alt. Az. Time Alt. Az.
14 Jun 11.3 17:24:09 10° W 17:37:44 28° NW 17:53:18 10° NNE visible
15 Jun 11.6 18:48:06 10° WNW 18:53:02 11° NW 18:58:06 10° NNW visible
16 Jun 9.3 06:34:16 10° NNE 06:36:00 12° NE 06:37:57 10° ENE visible
16 Jun 11.5 17:40:51 10° WNW 17:51:23 19° NW 18:03:07 10° N visible
18 Jun 8.6 06:46:07 10° NNW 06:49:27 23° NE 06:53:39 10° E visible
19 Jun 9.0 05:49:15 10° NNE 05:50:23 11° NE 05:51:34 10° NE visible
21 Jun 8.3 06:00:54 10° NNW 06:04:00 22° NNE 06:07:30 10° E visible
22 Jun 8.7 05:03:23 10° N 05:04:49 12° NNE 05:06:16 10° NE visible
23 Jun 7.2 06:14:06 10° NW 06:17:48 39° NNE 06:22:03 10° E visible
